Location: Huberhof
(49.2050°N, 7.4980°E)
Time: 23:14:41
(UTC+00:00)

Cosmos 1110 Rocket - Pass Details

Date: 29 October 2020
Orbit: 753 x 780 km, 74.0° (Epoch: 26 November)

Event Time Altitude Azimuth Distance (km) Brightness Sun altitude
Rises 16:53:31 0° 204° (SSW) 3,228 7.8 -7.1°
Reaches altitude 10° 16:55:54 10° 206° (SSW) 2,302 7.1 -7.5°
Maximum altitude 17:01:08 81° 294° (WNW) 779 4.1 -8.4°
Drops below altitude 10° 17:06:22 10° 22° (NNE) 2,301 6.2 -9.2°
Sets 17:08:44 0° 23° (NNE) 3,227 6.9 -9.6°
